Montreal Mirabel, Quebec

12:10 PM EDT on August 19, 2017 (GMT -0400)
Montreal Mirabel

Weather History for CYMX - October, 2011

Change the Weather History Date:

Monday, October 31, 2011

  Actual Average Record
Temperature  
Mean Temperature 40 °F -  
Max Temperature 51 °F 45 °F 64 °F (1999)
Min Temperature 28 °F 30 °F 21 °F (2002)
Degree Days  
Heating Degree Days 26    
Moisture  
Dew Point 30 °F    
Average Humidity 70    
Maximum Humidity 93    
Minimum Humidity 50    
Precipitation  
Precipitation 0.00 in - - ()
Sea Level Pressure  
Sea Level Pressure 30.30 in    
Wind  
Wind Speed 2 mph ()    
Max Wind Speed 8 mph    
Max Gust Speed -    
Visibility 16.2 miles    
Events      
Averages and records for this station are not official NWS values.
T = Trace of Precipitation, MM = Missing Value Source: Averaged Metar Reports

Daily Weather History Graph

Daily Weather History Graph

Search for Another Location

Airport or City:

Trip Planner

Search our weather history database for the weather conditions in past years. The results will help you decide how hot, cold, wet, or windy it might be!

Date:

Astronomy

Oct. 31, 2011 Rise Set
Actual Time 7:34 AM EDT 5:44 PM EDT
Civil Twilight 7:03 AM EDT 6:15 PM EDT
Nautical Twilight 6:28 AM EDT 6:50 PM EDT
Astronomical Twilight 5:53 AM EDT 7:25 PM EDT
Moon 12:46 PM EDT (10/31) 10:11 PM EDT (10/31)
Length of Visible Light 11h 12m
Length of Day
10h 10m
Waxing Crescent, 29% of the Moon is Illuminated
Oct 31
Waxing Crescent
Nov 2
First Quarter
Nov 10
Full
Nov 18
Last Quarter
Nov 25
New

Hourly Weather History & Observations

Time (EDT) Temp. Windchill Dew Point Humidity Pressure Visibility Wind Dir Wind Speed Gust Speed Precip Events Conditions
12:00 AM 30.2 °F - 24.8 °F 80% 30.27 in 25.0 mi SW 2.3 mph - N/A   Partly Cloudy
1:00 AM 32.0 °F - 26.6 °F 80% 30.27 in 25.0 mi Calm Calm - N/A   Partly Cloudy
2:00 AM 30.2 °F - 24.8 °F 80% 30.29 in 25.0 mi Calm Calm - N/A   Partly Cloudy
3:00 AM 30.2 °F - 24.8 °F 80% 30.30 in 25.0 mi Calm Calm - N/A   Scattered Clouds
4:00 AM 28.4 °F - 23.0 °F 80% 30.30 in 25.0 mi Calm Calm - N/A   Scattered Clouds
5:00 AM 28.4 °F - 24.8 °F 86% 30.31 in 25.0 mi Calm Calm - N/A   Partly Cloudy
6:00 AM 30.2 °F 26.7 °F 26.6 °F 86% 30.31 in 25.0 mi West 3.5 mph - N/A   Scattered Clouds
7:00 AM 30.2 °F - 26.6 °F 86% 30.32 in 25.0 mi South 2.3 mph - N/A   Mostly Cloudy
8:00 AM 32.0 °F - 26.6 °F 80% 30.33 in 15.0 mi WSW 2.3 mph - N/A   Mostly Cloudy
9:00 AM 33.8 °F - 32.0 °F 93% 30.34 in 15.0 mi Calm Calm - N/A   Partly Cloudy
10:00 AM 39.2 °F 37.0 °F 33.8 °F 81% 30.33 in 15.0 mi West 3.5 mph - N/A   Partly Cloudy
11:00 AM 42.8 °F 40.1 °F 33.8 °F 70% 30.33 in 20.0 mi WSW 4.6 mph - N/A   Partly Cloudy
12:00 PM 46.4 °F 43.5 °F 35.6 °F 66% 30.32 in 25.0 mi SSW 5.8 mph - N/A   Partly Cloudy
1:00 PM 50.0 °F - 33.8 °F 54% 30.30 in 25.0 mi SSW 8.1 mph - N/A   Partly Cloudy
2:00 PM 50.0 °F - 35.6 °F 58% 30.28 in 40.0 mi SSE 6.9 mph - N/A   Partly Cloudy
3:00 PM 51.8 °F - 33.8 °F 50% 30.27 in 40.0 mi SSE 4.6 mph - N/A   Scattered Clouds
4:00 PM 50.0 °F - 33.8 °F 54% 30.27 in 40.0 mi South 4.6 mph - N/A   Mostly Cloudy
5:00 PM 50.0 °F - 32.0 °F 50% 30.27 in 40.0 mi SE 3.5 mph - N/A   Mostly Cloudy
6:00 PM 46.4 °F 44.3 °F 32.0 °F 57% 30.28 in 25.0 mi SE 4.6 mph - N/A   Overcast
7:00 PM 46.4 °F 44.3 °F 32.0 °F 57% 30.29 in 25.0 mi ESE 4.6 mph - N/A   Overcast
8:00 PM 46.4 °F 45.2 °F 32.0 °F 57% 30.29 in 25.0 mi East 3.5 mph - N/A   Overcast
9:00 PM 44.6 °F 43.1 °F 33.8 °F 66% 30.29 in 25.0 mi NE 3.5 mph - N/A   Overcast
10:00 PM 42.8 °F 40.1 °F 32.0 °F 66% 30.30 in 25.0 mi NNE 4.6 mph - N/A   Overcast
11:00 PM 42.8 °F 41.1 °F 32.0 °F 66% 30.31 in 25.0 mi NNE 3.5 mph - N/A   Overcast